Precipitable_Water
0.72 0.56 0.48 0.50 0.52 0.44 0.40 0.35 0.31 0.34 0.39 0.34 0.32 0.32 0.32 0.33 0.34 0.33 0.34 0.36 0.37 0.39 0.43 0.50 0.52 0.53 0.53 0.55 0.57 0.66 0.77 0.95 1.12 1.20 1.20 1.16 1.19 1.20 1.25 1.24 1.26 1.25 1.26 1.22
0.61 0.50 0.62 0.63 0.58 0.50 0.44 0.38 0.33 0.37 0.41 0.35 0.31 0.27 0.31 0.33 0.32 0.31 0.29 0.28 0.30 0.34 0.37 0.41 0.46 0.52 0.54 0.53 0.53 0.53 0.59 0.81 0.98 1.05 1.14 1.25 1.15 1.19 1.23 1.28 1.23 1.24 1.25 1.20
0.48 0.51 0.63 0.57 0.50 0.44 0.41 0.36 0.35 0.33 0.38 0.37 0.31 0.23 0.22 0.23 0.23 0.25 0.25 0.26 0.29 0.28 0.28 0.29 0.36 0.40 0.45 0.50 0.54 0.57 0.59 0.75 0.89 1.01 1.14 1.22 1.28 1.30 1.21 1.22 1.21 1.22 1.21 1.17
0.48 0.51 0.47 0.48 0.44 0.45 0.35 0.43 0.39 0.35 0.30 0.20 0.29 0.13 0.16 0.17 0.17 0.21 0.22 0.24 0.26 0.27 0.29 0.29 0.30 0.33 0.35 0.41 0.49 0.51 0.56 0.63 0.89 1.01 1.03 1.04 1.03 1.02 1.09 1.13 1.16 1.20 1.21 1.16
0.44 0.45 0.44 0.41 0.43 0.46 0.38 0.43 0.36 0.33 0.27 0.23 0.20 0.16 0.13 0.17 0.14 0.16 0.20 0.25 0.26 0.26 0.28 0.29 0.30 0.32 0.34 0.36 0.36 0.44 0.51 0.58 0.78 0.92 1.00 1.04 1.07 1.18 1.13 1.09 1.09 1.11 1.15 1.18
0.47 0.55 0.51 0.46 0.47 0.45 0.46 0.38 0.34 0.30 0.24 0.13 0.15 0.15 0.13 0.14 0.16 0.19 0.22 0.25 0.25 0.26 0.27 0.30 0.33 0.34 0.34 0.37 0.38 0.39 0.41 0.51 0.66 0.85 0.94 0.95 1.06 1.07 1.07 1.04 1.02 1.03 1.05 1.07
0.41 0.43 0.49 0.50 0.41 0.44 0.39 0.31 0.16 0.14 0.13 0.10 0.19 0.16 0.14 0.19 0.21 0.22 0.24 0.26 0.28 0.29 0.29 0.29 0.30 0.33 0.36 0.39 0.41 0.42 0.43 0.44 0.58 0.75 0.86 0.96 0.98 1.02 0.99 0.99 0.98 0.98 0.97 1.00
0.31 0.30 0.42 0.45 0.37 0.31 0.30 0.26 0.15 0.10 0.10 0.13 0.21 0.12 0.15 0.23 0.27 0.29 0.30 0.31 0.31 0.32 0.32 0.31 0.32 0.35 0.40 0.43 0.44 0.45 0.46 0.46 0.56 0.70 0.74 0.91 0.96 0.97 1.01 1.02 0.98 0.96 0.95 0.99
0.30 0.27 0.41 0.40 0.38 0.33 0.27 0.23 0.30 0.21 0.21 0.15 0.15 0.17 0.21 0.27 0.29 0.32 0.33 0.34 0.35 0.36 0.36 0.35 0.34 0.40 0.44 0.46 0.46 0.46 0.46 0.48 0.52 0.61 0.74 0.82 0.85 0.93 0.92 0.97 1.00 0.99 1.01 1.02
0.31 0.22 0.34 0.36 0.39 0.38 0.33 0.35 0.22 0.22 0.11 0.10 0.15 0.18 0.21 0.27 0.29 0.32 0.33 0.34 0.37 0.40 0.42 0.42 0.43 0.44 0.46 0.46 0.45 0.46 0.48 0.47 0.49 0.57 0.68 0.76 0.79 0.91 0.96 1.05 1.02 1.01 1.05 1.02
0.33 0.26 0.27 0.35 0.29 0.27 0.30 0.27 0.26 0.25 0.22 0.16 0.15 0.19 0.31 0.31 0.33 0.34 0.37 0.40 0.43 0.45 0.46 0.47 0.46 0.46 0.50 0.50 0.48 0.45 0.44 0.43 0.44 0.52 0.69 0.68 0.76 0.83 1.00 1.12 1.07 1.02 0.99 0.98
0.35 0.28 0.22 0.27 0.37 0.38 0.34 0.30 0.29 0.22 0.21 0.27 0.26 0.22 0.37 0.36 0.39 0.42 0.44 0.49 0.56 0.58 0.54 0.51 0.53 0.52 0.54 0.53 0.51 0.49 0.47 0.46 0.47 0.56 0.65 0.65 0.73 0.89 0.93 1.05 1.07 1.05 0.95 0.95
0.34 0.27 0.20 0.22 0.30 0.36 0.30 0.33 0.36 0.36 0.35 0.28 0.24 0.23 0.38 0.40 0.43 0.49 0.51 0.55 0.59 0.59 0.55 0.56 0.57 0.58 0.56 0.56 0.54 0.52 0.52 0.50 0.54 0.64 0.66 0.71 0.77 0.91 0.96 0.99 1.06 0.96 0.89 0.91
0.41 0.31 0.24 0.19 0.25 0.31 0.29 0.35 0.39 0.38 0.30 0.29 0.29 0.29 0.37 0.43 0.46 0.52 0.57 0.58 0.57 0.57 0.55 0.56 0.57 0.59 0.60 0.60 0.60 0.59 0.58 0.57 0.64 0.73 0.74 0.75 0.82 0.89 0.97 1.00 1.01 0.90 0.86 0.89
0.38 0.27 0.32 0.32 0.33 0.34 0.35 0.36 0.38 0.36 0.36 0.29 0.30 0.36 0.42 0.48 0.52 0.58 0.60 0.55 0.56 0.57 0.57 0.58 0.58 0.58 0.60 0.62 0.62 0.64 0.66 0.67 0.70 0.73 0.77 0.75 0.83 0.89 0.97 0.95 0.90 0.82 0.87 0.87
0.41 0.31 0.33 0.27 0.32 0.35 0.34 0.39 0.41 0.40 0.40 0.38 0.39 0.39 0.54 0.60 0.64 0.58 0.54 0.56 0.57 0.60 0.64 0.64 0.63 0.62 0.62 0.64 0.66 0.71 0.76 0.72 0.67 0.74 0.75 0.76 0.82 0.90 0.91 0.82 0.78 0.83 0.85 0.86
0.36 0.34 0.30 0.23 0.34 0.37 0.32 0.40 0.43 0.42 0.44 0.43 0.37 0.45 0.58 0.58 0.59 0.58 0.55 0.54 0.54 0.58 0.62 0.63 0.63 0.65 0.66 0.69 0.75 0.75 0.77 0.75 0.67 0.67 0.72 0.78 0.85 0.87 0.83 0.78 0.82 0.81 0.83 0.85
0.37 0.35 0.34 0.26 0.35 0.26 0.42 0.50 0.50 0.45 0.46 0.49 0.49 0.53 0.60 0.62 0.64 0.67 0.60 0.55 0.54 0.56 0.59 0.62 0.65 0.68 0.73 0.78 0.80 0.81 0.81 0.78 0.81 0.84 0.86 0.88 0.85 0.78 0.79 0.80 0.79 0.80 0.83 0.80
0.46 0.39 0.30 0.27 0.31 0.36 0.42 0.49 0.47 0.43 0.40 0.50 0.50 0.53 0.62 0.66 0.66 0.65 0.66 0.61 0.58 0.60 0.62 0.65 0.70 0.72 0.74 0.79 0.80 0.80 0.79 0.79 0.81 0.81 0.80 0.82 0.80 0.78 0.79 0.80 0.82 0.85 0.86 0.83
0.46 0.45 0.37 0.35 0.29 0.25 0.43 0.52 0.58 0.55 0.34 0.53 0.55 0.54 0.57 0.62 0.51 0.60 0.71 0.70 0.65 0.65 0.67 0.68 0.71 0.72 0.72 0.75 0.80 0.78 0.78 0.78 0.73 0.75 0.79 0.80 0.81 0.82 0.83 0.84 0.83 0.82 0.82 0.80
0.35 0.37 0.33 0.35 0.31 0.34 0.46 0.50 0.59 0.35 0.36 0.56 0.58 0.58 0.59 0.57 0.63 0.72 0.74 0.72 0.74 0.72 0.73 0.76 0.76 0.77 0.78 0.79 0.80 0.78 0.78 0.74 0.78 0.85 0.86 0.86 0.86 0.84 0.84 0.82 0.77 0.69 0.63 0.60
0.36 0.34 0.34 0.36 0.31 0.27 0.55 0.55 0.43 0.51 0.59 0.59 0.60 0.61 0.62 0.65 0.68 0.73 0.74 0.74 0.75 0.77 0.78 0.80 0.79 0.79 0.82 0.83 0.81 0.78 0.77 0.80 0.80 0.80 0.78 0.77 0.76 0.70 0.62 0.60 0.61 0.59 0.58 0.49
0.37 0.42 0.39 0.41 0.37 0.49 0.55 0.54 0.59 0.63 0.59 0.59 0.60 0.64 0.69 0.67 0.69 0.71 0.72 0.75 0.75 0.77 0.77 0.79 0.78 0.74 0.74 0.77 0.78 0.73 0.74 0.74 0.71 0.67 0.64 0.60 0.60 0.60 0.60 0.61 0.50 0.36 0.30 0.27
0.48 0.54 0.47 0.48 0.50 0.53 0.57 0.59 0.63 0.64 0.60 0.62 0.65 0.67 0.72 0.70 0.71 0.71 0.70 0.70 0.70 0.72 0.72 0.73 0.70 0.68 0.69 0.72 0.73 0.71 0.71 0.68 0.63 0.61 0.60 0.59 0.55 0.48 0.38 0.31 0.29 0.26 0.24 0.24
0.49 0.53 0.48 0.49 0.54 0.58 0.60 0.63 0.62 0.61 0.64 0.64 0.68 0.69 0.70 0.72 0.70 0.71 0.68 0.66 0.69 0.69 0.70 0.69 0.68 0.64 0.64 0.65 0.64 0.64 0.64 0.63 0.60 0.55 0.47 0.40 0.35 0.30 0.28 0.27 0.26 0.25 0.25 0.24
0.50 0.46 0.40 0.39 0.56 0.58 0.60 0.66 0.66 0.61 0.62 0.63 0.65 0.67 0.71 0.73 0.70 0.70 0.69 0.68 0.67 0.67 0.65 0.64 0.63 0.63 0.60 0.63 0.64 0.62 0.58 0.50 0.42 0.38 0.34 0.30 0.28 0.27 0.27 0.26 0.26 0.28 0.26 0.25
Wind_Speed
21 20 22 23 21 18 17 19 20 21 21 21 24 25 25 26 27 29 30 30 30 30 29 29 29 30 32 36 37 38 37 35 34 34 31 30 30 29 28 27 26 25 25 24
17 18 20 20 20 20 19 21 20 21 21 22 23 28 28 28 29 30 32 32 33 32 31 31 32 32 31 32 33 35 38 38 37 36 36 34 32 31 30 29 27 27 26 25
18 18 22 19 18 19 18 19 18 19 19 19 21 26 23 24 25 26 28 29 28 30 33 33 34 34 34 34 34 34 35 38 40 39 37 36 34 32 30 30 29 29 29 27
17 17 18 20 18 17 16 15 15 15 15 18 15 20 20 22 22 22 22 23 25 25 26 27 29 32 34 35 36 37 37 37 40 40 40 39 38 36 35 33 32 32 31 29
15 16 14 15 16 16 15 13 12 13 14 15 17 17 18 17 19 20 22 23 21 23 26 28 29 31 32 34 35 38 39 38 39 40 42 42 40 39 37 35 35 34 33 32
13 13 14 15 13 14 13 11 10 11 11 13 15 16 17 13 14 14 16 21 23 24 25 26 29 30 31 32 34 36 39 42 41 42 42 43 43 40 38 36 36 35 34 33
12 11 12 13 12 11 11 9 9 9 9 13 11 13 18 17 17 19 22 23 25 26 26 28 29 30 30 30 31 32 33 38 42 44 44 44 44 43 42 40 38 37 36 35
12 11 15 13 13 12 12 11 10 10 9 11 11 14 14 14 19 20 21 23 23 27 29 31 32 32 32 32 31 32 33 34 38 43 46 46 46 45 44 42 40 38 38 36
12 9 10 11 11 11 10 10 9 8 10 11 13 15 18 18 15 17 19 21 23 25 27 29 31 31 32 34 35 36 36 36 38 40 44 47 48 47 45 42 41 39 38 36
11 9 9 8 9 9 8 9 6 7 8 11 12 14 14 14 14 18 21 22 24 26 28 29 31 33 33 34 35 36 38 39 40 42 44 45 49 48 45 43 40 38 37 36
10 9 8 8 9 10 8 8 6 7 8 10 12 11 11 14 16 20 22 25 30 33 35 37 36 36 35 34 35 36 37 37 39 41 43 44 45 47 45 43 40 39 37 35
10 8 8 10 6 7 10 10 9 6 9 10 10 13 13 15 15 21 30 37 38 37 36 35 34 32 33 33 33 34 36 37 39 40 40 43 43 44 45 42 40 37 36 34
11 7 5 4 5 7 8 10 10 8 8 10 9 12 13 18 29 32 31 34 33 32 32 28 26 28 28 29 30 31 34 36 36 37 36 37 39 42 42 40 38 35 34 33
9 7 7 7 6 4 7 7 9 9 7 9 15 22 25 28 29 30 32 31 29 28 25 22 21 20 23 26 29 30 29 28 27 29 31 32 35 37 38 38 36 33 32 31
8 7 6 9 10 9 10 10 10 10 13 11 20 22 26 28 28 29 28 25 23 21 19 17 17 19 19 19 19 21 21 21 22 25 27 28 31 32 32 32 32 31 29 28
8 6 6 8 9 9 9 11 10 11 13 16 19 23 22 22 25 23 22 23 23 22 19 17 16 12 12 14 13 13 14 15 20 22 24 26 28 28 28 28 28 27 26 26
8 7 5 7 5 7 8 8 8 5 6 7 10 15 18 20 20 19 21 20 21 18 16 11 8 6 5 6 8 7 6 8 18 20 21 24 26 25 25 26 25 24 25 25
8 6 6 7 5 5 6 5 5 6 8 9 12 15 15 16 16 17 18 18 18 16 15 12 8 7 4 4 5 4 6 13 17 18 20 20 23 22 23 23 22 22 23 22
9 8 6 5 6 8 6 5 3 5 9 6 10 13 13 15 13 15 16 15 14 14 13 12 10 9 7 7 9 9 10 10 11 15 16 16 19 20 20 19 20 20 19 20
10 9 8 6 6 6 7 5 4 5 6 7 10 12 12 13 12 13 13 13 13 12 12 11 10 9 8 9 10 9 10 12 13 14 14 15 16 16 16 17 15 15 15 14
9 9 10 9 7 8 9 7 5 4 7 9 10 10 10 10 9 10 12 11 11 11 11 12 11 11 10 10 11 13 14 15 13 13 13 14 14 13 13 10 11 10 10 10
9 9 8 9 9 9 7 4 5 7 9 11 10 8 7 7 8 8 8 9 9 10 10 12 14 16 14 14 16 16 16 16 16 16 15 14 13 11 9 7 5 6 8 10
9 11 9 11 10 9 8 9 10 9 10 11 9 7 4 4 5 6 5 6 7 8 10 10 12 13 13 14 14 14 14 14 14 12 11 10 8 6 3 2 3 5 8 11
11 12 11 10 11 13 11 11 10 8 10 10 8 5 4 4 3 4 3 2 4 6 8 8 9 10 11 11 11 11 11 10 10 9 7 6 4 1 1 3 6 8 11 14
12 11 13 14 15 14 13 10 9 10 10 8 6 5 4 3 4 3 1 0 2 2 4 5 7 8 8 9 9 8 8 7 6 5 4 3 2 3 4 6 9 11 14 17
11 12 13 15 16 15 15 12 11 11 11 9 7 6 5 4 3 3 2 2 3 3 3 3 4 5 5 6 5 5 4 4 4 3 3 3 4 5 7 9 11 14 16 19
Wind_Direction
203 208 211 214 221 223 225 232 240 242 245 253 250 253 256 256 255 256 255 253 252 251 250 248 246 247 245 243 244 244 244 243 241 241 242 243 243 243 243 243 242 242 243 244
203 212 211 218 221 228 235 242 246 247 245 251 256 260 259 257 256 254 255 255 254 253 251 249 248 247 246 246 245 244 243 243 242 242 243 244 244 244 243 242 243 242 243 243
209 214 215 216 221 225 228 231 238 245 255 252 264 261 261 262 258 258 254 252 254 254 252 251 249 249 248 247 246 246 245 243 243 243 241 242 243 243 242 242 243 243 243 244
210 214 209 213 220 220 227 232 237 245 252 252 262 262 262 263 264 257 256 256 256 256 253 251 250 250 250 249 248 248 247 245 243 242 241 239 242 242 244 243 243 243 243 244
211 205 203 210 218 218 226 229 236 243 250 262 259 256 262 263 267 266 260 258 257 260 258 257 255 254 254 254 253 250 248 246 243 242 241 240 240 240 242 243 242 243 243 244
203 205 209 210 212 215 215 228 243 248 252 256 254 249 264 264 258 263 271 264 263 266 266 261 259 259 258 256 254 254 251 246 245 243 243 240 239 239 240 241 242 242 244 244
201 203 205 203 202 211 210 219 243 255 253 248 256 255 264 270 268 274 279 275 271 268 267 265 263 261 258 256 256 256 254 248 246 245 243 242 240 239 238 239 240 241 243 243
191 210 204 205 202 204 209 212 223 244 248 264 269 261 271 273 281 279 280 279 276 275 273 270 267 263 261 259 258 257 256 254 250 246 244 242 240 240 239 239 240 242 242 241
186 199 191 194 198 198 218 222 231 250 270 277 268 279 284 282 280 285 289 288 288 286 281 276 269 263 262 262 261 260 258 256 253 249 245 242 240 238 238 237 239 240 239 239
180 171 179 185 191 202 205 209 243 264 272 274 279 282 280 287 286 296 295 292 292 288 288 284 275 268 266 265 265 264 261 258 256 252 246 242 239 236 236 234 234 236 237 238
180 174 192 183 205 205 214 238 252 255 259 271 290 286 278 288 294 299 298 296 295 292 287 283 277 271 268 266 265 265 264 262 258 252 246 240 237 233 230 230 232 234 235 234
189 180 193 204 211 216 229 235 236 256 273 272 278 290 296 302 307 308 305 303 300 296 290 282 273 270 267 266 268 266 264 264 260 251 244 238 233 227 225 226 229 231 232 232
187 193 197 219 236 236 241 240 242 257 276 267 287 291 300 304 311 310 309 309 305 300 294 289 281 270 268 266 270 272 268 265 258 244 236 231 225 220 220 221 223 227 228 230
180 198 201 213 228 227 243 239 236 239 268 283 271 293 300 308 312 313 316 315 311 307 302 286 282 276 274 272 273 272 269 260 246 232 224 221 217 214 215 216 220 224 225 226
198 216 233 252 251 252 247 246 243 240 257 281 296 300 305 312 317 320 321 325 324 320 312 301 290 283 278 277 277 277 265 247 234 219 214 213 208 207 209 212 215 218 220 221
215 228 255 263 258 245 251 247 243 253 272 281 293 299 309 320 324 331 334 333 328 320 310 305 297 287 280 279 282 284 262 235 211 206 205 199 199 199 205 206 208 212 216 218
214 228 250 258 262 272 256 230 222 258 285 301 312 319 330 329 333 340 340 343 344 339 338 335 332 315 297 296 300 291 253 192 185 187 186 186 190 195 197 200 204 209 213 215
213 224 235 253 278 240 224 249 240 255 294 296 313 315 328 335 343 350 351 355 359 5 15 27 39 45 36 40 22 74 100 148 160 166 173 178 183 186 190 194 201 207 214 217
219 223 237 235 240 257 232 219 250 285 307 316 324 327 328 337 346 355 5 6 9 17 25 36 40 49 56 54 68 89 110 132 149 154 159 165 170 178 185 195 204 210 205 218
217 224 223 227 237 234 225 229 274 303 301 315 328 331 337 344 348 357 0 6 13 22 30 39 45 50 61 75 75 93 103 118 132 143 152 159 168 176 181 188 190 205 220 222
214 222 226 227 235 249 236 243 259 301 293 315 321 323 339 347 351 358 9 15 24 35 45 40 39 50 65 79 82 96 102 104 108 133 137 152 152 159 163 162 184 198 218 241
212 211 219 219 224 242 212 226 251 283 306 314 314 314 331 349 3 7 16 25 37 47 55 58 65 71 76 81 87 92 101 107 107 108 110 120 128 135 147 161 187 222 249 266
228 223 223 218 221 225 240 257 276 286 299 313 312 304 298 332 345 6 14 35 53 58 65 73 72 74 79 87 93 90 94 99 105 108 110 113 126 133 154 201 251 271 281 287
240 232 236 237 238 242 249 266 272 282 295 306 306 292 275 300 318 337 17 40 63 67 74 82 79 80 84 86 89 95 97 99 99 98 98 101 109 118 294 296 298 296 297 300
243 249 240 247 252 256 250 249 267 283 292 297 298 276 269 289 289 287 288 171 138 100 93 92 90 87 86 90 90 93 95 96 88 84 78 64 26 344 325 317 310 307 307 308
244 246 240 244 245 245 248 254 267 281 283 277 272 270 263 269 277 256 241 240 198 182 153 126 117 107 87 94 93 92 90 89 82 59 28 2 343 329 321 317 316 315 313 312